Location: Brno
(49.2000°N, 16.6330°E)
Time: 14:56:50
(UTC+02:00)

Cosmos 1603 - Visible Passes

Search period start: 30 April 2017 00:00
Search period end: 10 May 2017 00:00
Orbit: 830 x 861 km, 71.0° (Epoch: 28 April)

Date Brightness Start Highest point End Pass type
(mag) Time Alt. Az. Time Alt. Az. Time Alt. Az.
30 Apr 4.2 01:21:09 43° WSW 01:22:37 54° NW 01:28:17 10° NNE visible
30 Apr 6.0 03:04:46 10° WNW 03:08:07 16° NNW 03:11:30 10° N visible
30 Apr 4.8 23:25:16 28° E 23:25:16 28° E 23:29:43 10° NE visible
01 May 4.2 01:07:07 42° WSW 01:08:41 56° NW 01:14:22 10° NNE visible
01 May 6.0 02:50:45 10° WNW 02:54:10 16° NNW 02:57:37 10° N visible
01 May 4.8 23:11:11 28° E 23:11:11 28° E 23:15:46 10° NE visible
02 May 4.1 00:53:02 41° WSW 00:54:45 57° WNW 01:00:27 10° NNE visible
02 May 6.1 02:36:44 10° WNW 02:40:13 16° NNW 02:43:43 10° N visible
02 May 4.8 22:57:02 27° ESE 22:57:04 27° ESE 23:01:49 10° NE visible
03 May 4.1 00:38:53 39° WSW 00:40:51 59° WNW 00:46:33 10° NNE visible
03 May 6.1 02:22:43 10° WNW 02:26:16 16° NNW 02:29:50 10° N visible
03 May 4.7 22:42:48 26° ESE 22:43:11 26° ESE 22:47:52 10° NE visible
04 May 4.1 00:24:39 36° WSW 00:26:55 60° WNW 00:32:38 10° NNE visible
04 May 6.1 02:08:42 10° WNW 02:12:19 17° NW 02:15:57 10° N visible
04 May 4.7 22:28:30 25° ESE 22:29:17 26° ESE 22:33:55 10° NE visible
05 May 4.1 00:10:20 32° SW 00:12:59 62° WNW 00:18:44 10° NNE visible
05 May 6.1 01:54:42 10° WNW 01:58:22 17° NW 02:02:03 10° N visible
05 May 4.8 22:14:05 23° ESE 22:15:23 25° ESE 22:19:57 10° NE visible
05 May 4.1 23:55:54 27° SW 23:59:03 63° WNW 00:04:49 10° NNE visible
06 May 6.1 01:40:41 10° WNW 01:44:24 17° NW 01:48:09 10° N visible
06 May 4.8 21:59:31 20° SE 22:01:29 24° ESE 22:06:00 10° NE visible
06 May 4.0 23:41:20 21° SW 23:45:08 65° WNW 23:50:54 10° NNE visible
07 May 6.2 01:26:41 10° WNW 01:30:28 18° NW 01:34:16 10° N visible
07 May 4.9 21:44:47 16° SE 21:47:36 23° ESE 21:52:02 10° NE visible
07 May 4.0 23:26:34 16° SW 23:31:13 67° WNW 23:36:59 10° NNE visible
08 May 6.2 01:12:40 10° WNW 01:16:30 18° NW 01:20:22 10° N visible
08 May 4.9 21:29:46 12° SSE 21:33:42 23° E 21:38:04 10° NE visible
08 May 4.0 23:11:35 10° SW 23:17:18 68° WNW 23:23:04 10° NNE visible
09 May 6.2 00:58:40 10° W 01:02:33 18° NW 01:06:29 10° N visible
09 May 7.0 04:36:25 10° NNE 04:36:42 10° NNE 04:36:58 10° NNE visible
09 May 4.9 21:15:31 10° SSE 21:19:48 22° E 21:24:06 10° NE visible
09 May 4.0 22:57:39 10° SW 23:03:22 70° WNW 23:09:09 10° NNE visible
